Location: Ponte Samoggia
(44.5667°N, 11.1333°E)
Time: 23:04:15
(UTC+00:00)

Meteor 1-11 - Pass Details

Date: 26 May 2022
Orbit: 839 x 887 km, 81.2° (Epoch: 26 June)

Event Time Altitude Azimuth Distance (km) Brightness Sun altitude
Exits shadow 02:45:18 - 188° (S) 3,391 6.9 -8.4°
Reaches altitude 10° 02:47:31 10° 188° (S) 2,543 6.3 -8.1°
Maximum altitude 02:53:20 89° 97° (E) 891 4.4 -7.3°
Drops below altitude 10° 02:59:08 10° 11° (N) 2,543 7.5 -6.5°
Sets 03:01:35 0° 11° (N) 3,480 8.3 -6.1°
